This is the latest recevied weather packets stored in our database for station/object IU1OLT-5. If no packets are shown the sender has not sent any weather packets the latest 10 day(s).
| Time | Temp. | Humidity | Pressure | Rain* | Wind** | Luminosity | Snow |
|---|---|---|---|---|---|---|---|
| 1777421402 | 13.33° C | 69% | 1015.5 hPa | 0 mm | - | 0 W/m² | - |
| 1777420501 | 13.33° C | 69% | 1015.4 hPa | 0 mm | - | 0 W/m² | - |
| 1777419601 | 13.89° C | 70% | 1015.3 hPa | 0 mm | - | 0 W/m² | - |
| 1777418701 | 13.89° C | 69% | 1015.5 hPa | 0 mm | - | 0 W/m² | - |
| 1777417801 | 13.33° C | 72% | 1015.2 hPa | 0 mm | - | 0 W/m² | - |
| 1777416901 | 13.89° C | 71% | 1015.4 hPa | 0 mm | - | 0 W/m² | - |
| 1777416001 | 13.33° C | 73% | 1015.4 hPa | 0 mm | - | 0 W/m² | - |
| 1777415100 | 13.33° C | 73% | 1015.5 hPa | 0 mm | - | 0 W/m² | - |
| 1777414200 | 13.33° C | 74% | 1015.6 hPa | 0 mm | - | 0 W/m² | - |
| 1777413300 | 13.89° C | 72% | 1015.7 hPa | 0 mm | - | 0 W/m² | - |
| 1777412399 | 13.89° C | 73% | 1015.4 hPa | 0 mm | - | 0 W/m² | - |
| 1777411499 | 13.89° C | 75% | 1015.5 hPa | 0 mm | - | 0 W/m² | - |
| 1777410599 | 13.89° C | 73% | 1015.5 hPa | 0 mm | - | 0 W/m² | - |
| 1777409698 | 13.89° C | 74% | 1015.5 hPa | 0 mm | - | 0 W/m² | - |
| 1777408798 | 15° C | 71% | 1015.5 hPa | 0 mm | - | 0 W/m² | - |
| 1777407898 | 14.44° C | 76% | 1015.7 hPa | 0 mm | - | 0 W/m² | - |
| 1777406998 | 15° C | 76% | 1016.1 hPa | 0 mm | - | 0 W/m² | - |
| 1777406097 | 15° C | 77% | 1015.8 hPa | 0 mm | - | 0 W/m² | - |
| 1777405197 | 15° C | 78% | 1015.7 hPa | 0 mm | - | 0 W/m² | - |
| 1777404297 | 15.56° C | 72% | 1015.4 hPa | 0 mm | - | 0 W/m² | - |
| 1777403397 | 15° C | 76% | 1015.2 hPa | 0 mm | - | 0 W/m² | - |
| 1777402497 | 16.11° C | 70% | 1015.2 hPa | 0 mm | - | 0 W/m² | - |
| 1777401597 | 16.67° C | 47% | 1015.2 hPa | 0 mm | - | 0 W/m² | - |
| 1777400696 | 16.67° C | 64% | 1014.7 hPa | 0 mm | - | 1 W/m² | - |
| 1777399796 | 16.67° C | 61% | 1014.8 hPa | 0 mm | - | 7 W/m² | - |
* Rain latest hour (hover to see other rain measurements)
** Current wind speed in m/s (hover to see current wind gust speed)